• In Czech Republic
  • List of Countries
  • For 7 days
  • Water Temperature
  • Satellite Maps
  • Weather Map
  • Weather Widgets
  • user-avatar
    Login

    Hourly Weather Telichino

    Today, 18 July, Wednesday

    Time Temperature Precipitation Wind Pressure Humidity
    00:00 +20°C° 0 mm 3 mps 741 mmHg 93%
    01:00 +19°C° 0 mm 3 mps 741 mmHg 94%
    02:00 +19°C° 0 mm 3 mps 741 mmHg 95%
    03:00 +19°C° 0 mm 3 mps 741 mmHg 95%
    04:00 +19°C° 0 mm 3 mps 741 mmHg 95%
    05:00 +19°C° 0 mm 3 mps 741 mmHg 95%
    06:00 +20°C° 0 mm 4 mps 741 mmHg 91%
    07:00 +21°C° 0 mm 4 mps 741 mmHg 87%
    08:00 +22°C° 0 mm 4 mps 741 mmHg 83%
    09:00 +23°C° 0.1 mm 4 mps 741 mmHg 80%
    10:00 +25°C° 0.1 mm 4 mps 741 mmHg 76%
    11:00 +26°C° 0.1 mm 4 mps 741 mmHg 72%
    12:00 +26°C° 0.8 mm 4 mps 741 mmHg 72%
    13:00 +26°C° 0.8 mm 4 mps 741 mmHg 73%
    14:00 +27°C° 0.8 mm 4 mps 741 mmHg 73%
    15:00 +26°C° 0.5 mm 4 mps 741 mmHg 74%
    16:00 +26°C° 0.5 mm 4 mps 740 mmHg 75%
    17:00 +26°C° 0.5 mm 4 mps 740 mmHg 76%
    18:00 +25°C° 0.3 mm 4 mps 740 mmHg 80%
    19:00 +22°C° 0.3 mm 3 mps 740 mmHg 83%
    20:00 +21°C° 0.3 mm 3 mps 740 mmHg 87%
    21:00 +20°C° 0.1 mm 3 mps 740 mmHg 89%
    22:00 +20°C° 0.1 mm 3 mps 740 mmHg 91%
    23:00 +19°C° 0.1 mm 3 mps 740 mmHg 94%

    Tomorrow, 19 July, Thursday

    Time Temperature Precipitation Wind Pressure Humidity
    00:00 +18°C° 0.1 mm 3 mps 740 mmHg 94%
    01:00 +18°C° 0.1 mm 3 mps 740 mmHg 94%
    02:00 +18°C° 0.1 mm 3 mps 740 mmHg 94%
    03:00 +18°C° 0.5 mm 3 mps 740 mmHg 95%
    04:00 +18°C° 0.5 mm 3 mps 740 mmHg 96%
    05:00 +18°C° 0.5 mm 3 mps 740 mmHg 96%
    06:00 +18°C° 1.1 mm 3 mps 740 mmHg 96%
    07:00 +19°C° 1.1 mm 3 mps 740 mmHg 96%
    08:00 +19°C° 1.1 mm 3 mps 740 mmHg 96%
    09:00 +19°C° 1.3 mm 3 mps 741 mmHg 95%
    10:00 +19°C° 1.3 mm 3 mps 741 mmHg 95%
    11:00 +19°C° 1.3 mm 4 mps 741 mmHg 95%
    12:00 +20°C° 0.5 mm 4 mps 741 mmHg 92%
    13:00 +21°C° 0.5 mm 4 mps 741 mmHg 89%
    14:00 +23°C° 0.5 mm 4 mps 741 mmHg 86%
    15:00 +23°C° 0.6 mm 4 mps 741 mmHg 86%
    16:00 +23°C° 0.6 mm 4 mps 741 mmHg 86%
    17:00 +23°C° 0.6 mm 4 mps 741 mmHg 86%
    18:00 +22°C° 0.3 mm 3 mps 741 mmHg 88%
    19:00 +22°C° 0.3 mm 3 mps 740 mmHg 91%
    20:00 +21°C° 0.3 mm 2 mps 740 mmHg 94%
    21:00 +20°C° 0 mm 2 mps 740 mmHg 95%
    22:00 +20°C° 0 mm 2 mps 740 mmHg 96%
    23:00 +19°C° 0 mm 2 mps 740 mmHg 97%

    Day after tomorrow, 20 July, Friday

    Time Temperature Precipitation Wind Pressure Humidity
    00:00 +19°C° 0 mm 2 mps 740 mmHg 97%
    01:00 +18°C° 0 mm 2 mps 740 mmHg 97%
    02:00 +18°C° 0 mm 2 mps 740 mmHg 97%
    03:00 +18°C° 0 mm 2 mps 740 mmHg 97%
    04:00 +18°C° 0 mm 2 mps 740 mmHg 97%
    05:00 +18°C° 0 mm 2 mps 740 mmHg 97%
    06:00 +19°C° 0 mm 3 mps 740 mmHg 95%
    07:00 +20°C° 0 mm 3 mps 740 mmHg 92%
    08:00 +21°C° 0 mm 3 mps 740 mmHg 89%
    09:00 +22°C° 0.2 mm 3 mps 740 mmHg 87%
    10:00 +24°C° 0.2 mm 3 mps 740 mmHg 84%
    11:00 +24°C° 0.2 mm 3 mps 740 mmHg 81%
    12:00 +25°C° 0.5 mm 3 mps 740 mmHg 78%
    13:00 +26°C° 0.5 mm 3 mps 740 mmHg 75%
    14:00 +26°C° 0.5 mm 2 mps 740 mmHg 71%
    15:00 +26°C° 0.2 mm 2 mps 740 mmHg 71%
    16:00 +26°C° 0.2 mm 2 mps 740 mmHg 71%
    17:00 +26°C° 0.2 mm 2 mps 740 mmHg 71%
    18:00 +25°C° 0.2 mm 2 mps 739 mmHg 78%
    19:00 +24°C° 0.2 mm 2 mps 739 mmHg 84%
    20:00 +21°C° 0.2 mm 2 mps 739 mmHg 90%
    21:00 +21°C° 0 mm 2 mps 739 mmHg 93%
    22:00 +20°C° 0 mm 2 mps 739 mmHg 95%
    23:00 +19°C° 0 mm 2 mps 739 mmHg 97%

    21 July, Saturday

    Time Temperature Precipitation Wind Pressure Humidity
    00:00 +19°C° 0 mm 2 mps 739 mmHg 97%
    01:00 +18°C° 0 mm 2 mps 739 mmHg 98%
    02:00 +18°C° 0 mm 2 mps 739 mmHg 98%
    03:00 +18°C° 0 mm 2 mps 739 mmHg 98%
    04:00 +19°C° 0 mm 2 mps 739 mmHg 98%
    05:00 +19°C° 0 mm 2 mps 740 mmHg 98%
    06:00 +19°C° 0 mm 2 mps 740 mmHg 96%
    07:00 +20°C° 0 mm 2 mps 740 mmHg 95%
    08:00 +20°C° 0 mm 2 mps 740 mmHg 93%
    09:00 +21°C° 0.1 mm 2 mps 740 mmHg 89%
    10:00 +23°C° 0.1 mm 2 mps 740 mmHg 84%
    11:00 +24°C° 0.1 mm 2 mps 740 mmHg 80%
    12:00 +25°C° 0.1 mm 2 mps 740 mmHg 74%
    13:00 +27°C° 0.1 mm 2 mps 740 mmHg 69%
    14:00 +28°C° 0.1 mm 2 mps 740 mmHg 63%
    15:00 +27°C° 0.3 mm 2 mps 740 mmHg 66%
    16:00 +27°C° 0.3 mm 2 mps 740 mmHg 69%
    17:00 +27°C° 0.3 mm 2 mps 740 mmHg 71%
    18:00 +26°C° 0.4 mm 2 mps 740 mmHg 77%
    19:00 +24°C° 0.4 mm 2 mps 740 mmHg 83%
    20:00 +23°C° 0.4 mm 2 mps 739 mmHg 89%
    21:00 +21°C° 0 mm 2 mps 739 mmHg 91%
    22:00 +20°C° 0 mm 2 mps 739 mmHg 93%
    23:00 +20°C° 0 mm 2 mps 739 mmHg 95%

    22 July, Sunday

    Time Temperature Precipitation Wind Pressure Humidity
    00:00 +19°C° 0 mm 2 mps 739 mmHg 96%
    01:00 +19°C° 0 mm 2 mps 739 mmHg 96%
    02:00 +19°C° 0 mm 2 mps 739 mmHg 97%
    03:00 +19°C° 0 mm 2 mps 740 mmHg 97%
    04:00 +19°C° 0 mm 2 mps 740 mmHg 97%
    05:00 +19°C° 0 mm 2 mps 740 mmHg 98%
    06:00 +20°C° 0 mm 2 mps 740 mmHg 94%
    07:00 +21°C° 0 mm 2 mps 740 mmHg 91%
    08:00 +23°C° 0 mm 2 mps 740 mmHg 88%
    09:00 +24°C° 0.3 mm 3 mps 740 mmHg 85%
    10:00 +25°C° 0.3 mm 3 mps 740 mmHg 83%
    11:00 +25°C° 0.3 mm 3 mps 740 mmHg 80%
    12:00 +26°C° 1.1 mm 3 mps 740 mmHg 81%
    13:00 +26°C° 1.1 mm 3 mps 740 mmHg 81%
    14:00 +26°C° 1.1 mm 3 mps 740 mmHg 81%
    15:00 +26°C° 0.7 mm 3 mps 740 mmHg 81%
    16:00 +26°C° 0.7 mm 3 mps 739 mmHg 82%
    17:00 +26°C° 0.7 mm 3 mps 739 mmHg 82%
    18:00 +25°C° 0.7 mm 3 mps 739 mmHg 85%
    19:00 +24°C° 0.7 mm 3 mps 739 mmHg 89%
    20:00 +22°C° 0.7 mm 3 mps 740 mmHg 92%
    21:00 +21°C° 0.1 mm 3 mps 740 mmHg 93%
    22:00 +21°C° 0.1 mm 3 mps 740 mmHg 94%
    23:00 +20°C° 0.1 mm 3 mps 740 mmHg 96%

    23 July, Monday

    Time Temperature Precipitation Wind Pressure Humidity
    00:00 +20°C° 0.2 mm 3 mps 740 mmHg 96%
    01:00 +19°C° 0.2 mm 3 mps 740 mmHg 96%
    02:00 +19°C° 0.2 mm 3 mps 740 mmHg 96%
    03:00 +19°C° 0.3 mm 3 mps 740 mmHg 97%
    04:00 +19°C° 0.3 mm 3 mps 740 mmHg 97%
    05:00 +19°C° 0.3 mm 3 mps 740 mmHg 97%
    06:00 +19°C° 0.7 mm 4 mps 740 mmHg 96%
    07:00 +20°C° 0.7 mm 4 mps 740 mmHg 95%
    08:00 +21°C° 0.7 mm 4 mps 741 mmHg 94%
    09:00 +21°C° 0.6 mm 4 mps 741 mmHg 91%
    10:00 +22°C° 0.6 mm 5 mps 741 mmHg 89%
    11:00 +22°C° 0.6 mm 5 mps 741 mmHg 86%
    12:00 +23°C° 0.1 mm 5 mps 741 mmHg 82%
    13:00 +25°C° 0.1 mm 5 mps 741 mmHg 77%
    14:00 +26°C° 0.1 mm 5 mps 741 mmHg 73%
    15:00 +26°C° 0.4 mm 4 mps 741 mmHg 74%
    16:00 +26°C° 0.4 mm 4 mps 741 mmHg 75%
    17:00 +26°C° 0.4 mm 4 mps 741 mmHg 76%
    18:00 +25°C° 0.3 mm 4 mps 741 mmHg 80%
    19:00 +24°C° 0.3 mm 3 mps 741 mmHg 84%
    20:00 +21°C° 0.3 mm 3 mps 741 mmHg 88%
    21:00 +21°C° 0 mm 3 mps 741 mmHg 89%
    22:00 +20°C° 0 mm 3 mps 741 mmHg 89%
    23:00 +19°C° 0 mm 3 mps 742 mmHg 90%
    Show more